This is the latest recevied weather packets stored in our database for station/object N3LF. If no packets are shown the sender has not sent any weather packets the latest 10 day(s).
| Time | Temp. | Humidity | Pressure | Rain* | Wind** | Luminosity | Snow |
|---|---|---|---|---|---|---|---|
| 1777121718 | 16.67° C | 99% | 1013.1 hPa | 0 mm | - | 66 W/m² | - |
| 1777121416 | 16.67° C | 99% | 1013.2 hPa | 0 mm | - | 47 W/m² | - |
| 1777121116 | 16.67° C | 99% | 1013.2 hPa | 0 mm | - | 54 W/m² | - |
| 1777120813 | 16.67° C | 99% | 1013.2 hPa | 0 mm | - | 59 W/m² | - |
| 1777120508 | 16.67° C | 99% | 1013 hPa | 0 mm | - | 68 W/m² | - |
| 1777120204 | 16.67° C | 99% | 1012.8 hPa | 0 mm | - | 92 W/m² | - |
| 1777119900 | 16.67° C | 99% | 1012.9 hPa | 0 mm | - | 125 W/m² | - |
| 1777119596 | 16.67° C | 99% | 1012.9 hPa | 0 mm | - | 127 W/m² | - |
| 1777119293 | 16.67° C | 99% | 1012.8 hPa | 0 mm | - | 116 W/m² | - |
| 1777118993 | 16.11° C | 99% | 1012.8 hPa | 0 mm | - | 90 W/m² | - |
| 1777118688 | 16.67° C | 99% | 1012.9 hPa | 0 mm | - | 71 W/m² | - |
| 1777118384 | 16.11° C | 99% | 1012.9 hPa | 0 mm | - | 56 W/m² | - |
| 1777118081 | 16.11° C | 99% | 1012.5 hPa | 0 mm | - | 44 W/m² | - |
| 1777117777 | 16.11° C | 99% | 1012.7 hPa | 0 mm | - | 29 W/m² | - |
| 1777117475 | 16.11° C | 99% | 1012.8 hPa | 0 mm | - | 22 W/m² | - |
| 1777117171 | 16.11° C | 99% | 1012.8 hPa | 0 mm | - | 18 W/m² | - |
| 1777116867 | 16.11° C | 99% | 1012.7 hPa | 0 mm | - | 17 W/m² | - |
| 1777116563 | 16.11° C | 99% | 1012.6 hPa | 0 mm | - | 16 W/m² | - |
| 1777116259 | 16.11° C | 99% | 1012.7 hPa | 0 mm | - | 11 W/m² | - |
| 1777115954 | 16.11° C | 99% | 1012.7 hPa | 0 mm | - | 9 W/m² | - |
| 1777115649 | 16.11° C | 99% | 1012.4 hPa | 0 mm | - | 5 W/m² | - |
| 1777115345 | 16.11° C | 99% | 1012.6 hPa | 0 mm | - | 3 W/m² | - |
| 1777115042 | 16.11° C | 99% | 1012.6 hPa | 0 mm | - | 1 W/m² | - |
| 1777114739 | 16.11° C | 99% | 1012.4 hPa | 0 mm | - | 1 W/m² | - |
| 1777114435 | 16.11° C | 99% | 1012.6 hPa | 0 mm | - | 0 W/m² | - |
* Rain latest hour (hover to see other rain measurements)
** Current wind speed in m/s (hover to see current wind gust speed)